| time (UTC) | temp F | wind direction | speed MPH | gust MPH | rain 1hr in | rain 24hr in | rain mn in | humidity % | barometer mb |
| 20260510220503 | 69 | 198 | 2.0 | 7.0 | 0.00 | 0.01 | 0.01 | 43 | 1010.3 |
| 20260510220003 | 69 | 220 | 2.0 | 7.0 | 0.00 | 0.01 | 0.01 | 43 | 1010.3 |
| 20260510215503 | 70 | 235 | 2.0 | 6.0 | 0.00 | 0.02 | 0.01 | 45 | 1010.3 |
| 20260510215003 | 71 | 222 | 2.0 | 6.0 | 0.00 | 0.02 | 0.01 | 47 | 1010.0 |
| 20260510214503 | 71 | 221 | 1.0 | 6.0 | 0.00 | 0.02 | 0.01 | 50 | 1009.9 |
| 20260510214003 | 70 | 256 | 2.0 | 7.0 | 0.00 | 0.04 | 0.01 | 52 | 1009.9 |
| 20260510213503 | 70 | 291 | 2.0 | 7.0 | 0.00 | 0.04 | 0.01 | 49 | 1009.8 |
| 20260510213024 | 70 | 285 | 2.0 | 7.0 | 0.00 | 0.04 | 0.01 | 49 | 1010.1 |
| 20260510212503 | 70 | 219 | 1.0 | 4.0 | 0.00 | 0.04 | 0.01 | 52 | 1010.4 |
| 20260510212003 | 69 | 260 | 2.0 | 11.0 | 0.00 | 0.05 | 0.01 | 52 | 1010.0 |
| 20260510211503 | 70 | 303 | 3.0 | 11.0 | 0.00 | 0.05 | 0.01 | 52 | 1009.9 |
| 20260510211003 | 71 | 282 | 2.0 | 7.0 | 0.00 | 0.06 | 0.01 | 52 | 1010.0 |
| 20260510210503 | 70 | 216 | 2.0 | 3.0 | 0.00 | 0.07 | 0.01 | 53 | 1010.0 |
| 20260510210003 | 70 | 213 | 1.0 | 4.0 | 0.00 | 0.08 | 0.01 | 51 | 1009.8 |
| 20260510205503 | 71 | 220 | 2.0 | 9.0 | 0.00 | 0.09 | 0.01 | 51 | 1010.0 |
| 20260510205003 | 72 | 226 | 2.0 | 9.0 | 0.00 | 0.10 | 0.01 | 49 | 1009.6 |
| 20260510204503 | 71 | 260 | 3.0 | 7.0 | 0.00 | 0.10 | 0.01 | 47 | 1009.9 |
| 20260510204002 | 71 | 240 | 2.0 | 7.0 | 0.00 | 0.11 | 0.01 | 51 | 1009.8 |
| 20260510203503 | 70 | 214 | 1.0 | 7.0 | 0.00 | 0.11 | 0.01 | 53 | 1010.0 |
| 20260510203003 | 69 | 237 | 1.0 | 6.0 | 0.00 | 0.13 | 0.01 | 53 | 1009.9 |
| 20260510202503 | 69 | 321 | 3.0 | 11.0 | 0.00 | 0.13 | 0.01 | 53 | 1009.6 |
| 20260510202003 | 70 | 324 | 3.0 | 11.0 | 0.00 | 0.13 | 0.01 | 51 | 1009.8 |
| 20260510201503 | 71 | 261 | 3.0 | 10.0 | 0.00 | 0.13 | 0.01 | 51 | 1009.8 |
| 20260510201003 | 72 | 202 | 2.0 | 10.0 | 0.00 | 0.14 | 0.01 | 52 | 1009.8 |
| 20260510200502 | 72 | 239 | 3.0 | 10.0 | 0.00 | 0.15 | 0.01 | 51 | 1009.9 |
| 20260510200003 | 72 | 255 | 3.0 | 10.0 | 0.00 | 0.15 | 0.01 | 51 | 1009.7 |
| 20260510195524 | 72 | 251 | 3.0 | 10.0 | 0.00 | 0.16 | 0.01 | 50 | 1009.7 |
| 20260510195003 | 72 | 275 | 3.0 | 10.0 | 0.00 | 0.17 | 0.01 | 54 | 1009.8 |
| 20260510194524 | 71 | 248 | 2.0 | 10.0 | 0.00 | 0.18 | 0.01 | 56 | 1010.0 |
| 20260510194003 | 70 | 219 | 2.0 | 7.0 | 0.00 | 0.18 | 0.01 | 54 | 1009.8 |
| 20260510193503 | 70 | 233 | 1.0 | 7.0 | 0.00 | 0.19 | 0.01 | 56 | 1010.0 |
| 20260510193003 | 69 | 228 | 1.0 | 6.0 | 0.00 | 0.19 | 0.01 | 60 | 1010.1 |
| 20260510192502 | 69 | 210 | 1.0 | 3.0 | 0.00 | 0.20 | 0.01 | 61 | 1010.0 |
| 20260510192003 | 68 | 214 | 1.0 | 4.0 | 0.00 | 0.20 | 0.01 | 62 | 1010.2 |
| 20260510191503 | 68 | 227 | 2.0 | 6.0 | 0.00 | 0.20 | 0.01 | 60 | 1010.2 |
| 20260510191003 | 69 | 255 | 2.0 | 6.0 | 0.00 | 0.21 | 0.01 | 60 | 1010.3 |
| 20260510190503 | 70 | 276 | 2.0 | 9.0 | 0.00 | 0.21 | 0.01 | 60 | 1010.0 |
| 20260510190003 | 71 | 260 | 2.0 | 9.0 | 0.00 | 0.22 | 0.01 | 56 | 1010.1 |
| 20260510185502 | 71 | 199 | 2.0 | 4.0 | 0.00 | 0.22 | 0.01 | 61 | 1010.1 |
| 20260510185003 | 70 | 182 | 2.0 | 7.0 | 0.00 | 0.23 | 0.01 | 59 | 1010.0 |
| 20260510184503 | 70 | 191 | 3.0 | 7.0 | 0.00 | 0.24 | 0.01 | 59 | 1010.2 |
| 20260510184003 | 70 | 188 | 2.0 | 7.0 | 0.00 | 0.25 | 0.01 | 62 | 1010.1 |
| 20260510183503 | 69 | 183 | 2.0 | 7.0 | 0.00 | 0.26 | 0.01 | 64 | 1009.9 |
| 20260510183002 | 68 | 199 | 1.0 | 3.0 | 0.00 | 0.27 | 0.01 | 65 | 1010.1 |
| 20260510182503 | 67 | 202 | 2.0 | 6.0 | 0.00 | 0.28 | 0.01 | 67 | 1010.1 |
| 20260510182003 | 67 | 191 | 2.0 | 6.0 | 0.00 | 0.29 | 0.01 | 66 | 1010.3 |
| 20260510181503 | 67 | 187 | 1.0 | 4.0 | 0.00 | 0.30 | 0.01 | 67 | 1010.3 |
| 20260510181003 | 67 | 200 | 1.0 | 3.0 | 0.00 | 0.30 | 0.01 | 69 | 1010.2 |
| 20260510180503 | 66 | 205 | 1.0 | 4.0 | 0.00 | 0.31 | 0.01 | 70 | 1010.3 |
| 20260510180003 | 66 | 206 | 1.0 | 4.0 | 0.00 | 0.31 | 0.01 | 69 | 1010.0 |
| 20260510175503 | 66 | 205 | 1.0 | 4.0 | 0.00 | 0.32 | 0.01 | 69 | 1009.9 |
| 20260510175002 | 67 | 186 | 2.0 | 4.0 | 0.00 | 0.33 | 0.01 | 68 | 1010.1 |
| 20260510174503 | 67 | 190 | 2.0 | 6.0 | 0.00 | 0.34 | 0.01 | 66 | 1010.2 |
| 20260510174003 | 68 | 207 | 2.0 | 6.0 | 0.00 | 0.35 | 0.01 | 66 | 1010.1 |
| 20260510173503 | 69 | 216 | 1.0 | 6.0 | 0.00 | 0.35 | 0.01 | 62 | 1010.4 |
| 20260510173003 | 69 | 196 | 2.0 | 4.0 | 0.00 | 0.36 | 0.01 | 63 | 1010.3 |
| 20260510172503 | 69 | 194 | 2.0 | 6.0 | 0.00 | 0.38 | 0.01 | 61 | 1010.3 |
| 20260510172003 | 69 | 210 | 2.0 | 7.0 | 0.00 | 0.39 | 0.01 | 68 | 1010.1 |
| 20260510171503 | 68 | 209 | 2.0 | 7.0 | 0.00 | 0.39 | 0.01 | 65 | 1010.4 |
| 20260510171003 | 67 | 203 | 3.0 | 8.0 | 0.00 | 0.40 | 0.01 | 71 | 1010.5 |
| 20260510170503 | 66 | 199 | 2.0 | 8.0 | 0.00 | 0.41 | 0.01 | 69 | 1010.7 |
| 20260510170003 | 66 | 202 | 2.0 | 4.0 | 0.00 | 0.42 | 0.01 | 70 | 1010.6 |
| 20260510165503 | 66 | 203 | 2.0 | 7.0 | 0.00 | 0.43 | 0.01 | 71 | 1010.6 |
| 20260510165024 | 65 | 196 | 2.0 | 7.0 | 0.00 | 0.44 | 0.01 | 69 | 1010.6 |
| 20260510164503 | 65 | 181 | 1.0 | 6.0 | 0.00 | 0.45 | 0.01 | 71 | 1010.6 |
| 20260510164024 | 66 | 196 | 2.0 | 6.0 | 0.00 | 0.45 | 0.01 | 69 | 1010.6 |
| 20260510163503 | 65 | 204 | 2.0 | 8.0 | 0.00 | 0.46 | 0.01 | 72 | 1010.7 |
| 20260510163003 | 65 | 205 | 2.0 | 8.0 | 0.00 | 0.46 | 0.01 | 70 | 1010.8 |
| 20260510162503 | 65 | 188 | 2.0 | 4.0 | 0.00 | 0.46 | 0.01 | 73 | 1010.9 |
| 20260510162003 | 65 | 178 | 2.0 | 4.0 | 0.00 | 0.48 | 0.01 | 77 | 1011.0 |
| 20260510161503 | 64 | 201 | 2.0 | 6.0 | 0.00 | 0.48 | 0.01 | 76 | 1010.9 |
| 20260510161003 | 63 | 204 | 2.0 | 6.0 | 0.00 | 0.48 | 0.01 | 74 | 1011.0 |
| 20260510160503 | 63 | 189 | 1.0 | 3.0 | 0.00 | 0.48 | 0.01 | 76 | 1011.0 |
| 20260510160002 | 63 | 197 | 1.0 | 3.0 | 0.00 | 0.49 | 0.01 | 75 | 1011.1 |
| 20260510155503 | 63 | 199 | 1.0 | 4.0 | 0.00 | 0.49 | 0.01 | 76 | 1011.1 |
| 20260510155002 | 63 | 197 | 2.0 | 4.0 | 0.00 | 0.50 | 0.01 | 76 | 1011.1 |
| 20260510154503 | 63 | 198 | 2.0 | 4.0 | 0.00 | 0.50 | 0.01 | 76 | 1011.0 |
| 20260510154003 | 62 | 195 | 1.0 | 7.0 | 0.00 | 0.51 | 0.01 | 78 | 1011.4 |
| 20260510153503 | 62 | 196 | 2.0 | 7.0 | 0.00 | 0.51 | 0.01 | 79 | 1011.1 |
| 20260510153024 | 62 | 213 | 3.0 | 7.0 | 0.00 | 0.52 | 0.01 | 78 | 1011.2 |
| 20260510152503 | 61 | 216 | 2.0 | 7.0 | 0.00 | 0.52 | 0.01 | 81 | 1011.0 |
| 20260510152003 | 60 | 198 | 2.0 | 4.0 | 0.00 | 0.53 | 0.01 | 81 | 1011.1 |
| 20260510151503 | 60 | 202 | 1.0 | 4.0 | 0.00 | 0.53 | 0.01 | 82 | 1011.1 |
| 20260510151024 | 60 | 199 | 1.0 | 4.0 | 0.00 | 0.53 | 0.01 | 81 | 1011.2 |
| 20260510150503 | 60 | 197 | 2.0 | 4.0 | 0.00 | 0.54 | 0.01 | 80 | 1011.4 |
| 20260510150024 | 61 | 196 | 1.0 | 4.0 | 0.00 | 0.54 | 0.01 | 82 | 1011.4 |
| 20260510145503 | 61 | 202 | 1.0 | 4.0 | 0.00 | 0.55 | 0.01 | 87 | 1011.2 |
| 20260510145003 | 60 | 201 | 2.0 | 6.0 | 0.00 | 0.55 | 0.01 | 86 | 1011.2 |
| 20260510144503 | 59 | 180 | 2.0 | 7.0 | 0.00 | 0.55 | 0.01 | 87 | 1011.3 |
| 20260510144003 | 59 | 179 | 2.0 | 7.0 | 0.00 | 0.55 | 0.01 | 88 | 1011.4 |
| 20260510143503 | 58 | 200 | 2.0 | 6.0 | 0.00 | 0.56 | 0.01 | 91 | 1011.4 |
| 20260510143003 | 58 | 200 | 2.0 | 6.0 | 0.00 | 0.56 | 0.01 | 91 | 1011.4 |
| 20260510142505 | 57 | 200 | 2.0 | 6.0 | 0.00 | 0.57 | 0.01 | 93 | 1011.7 |
| 20260510142003 | 57 | 204 | 2.0 | 8.0 | 0.00 | 0.57 | 0.01 | 94 | 1011.7 |
| 20260510141503 | 57 | 205 | 2.0 | 8.0 | 0.00 | 0.57 | 0.01 | 94 | 1011.7 |
| 20260510141003 | 57 | 196 | 2.0 | 3.0 | 0.00 | 0.57 | 0.01 | 95 | 1011.5 |
| 20260510140503 | 57 | 193 | 1.0 | 4.0 | 0.00 | 0.57 | 0.01 | 96 | 1011.7 |
| 20260510140025 | 56 | 196 | 1.0 | 4.0 | 0.00 | 0.57 | 0.01 | 96 | 1011.7 |
| 20260510135503 | 55 | 195 | 1.0 | 3.0 | 0.00 | 0.57 | 0.01 | 96 | 1011.7 |
| 20260510135003 | 55 | 196 | 1.0 | 3.0 | 0.00 | 0.58 | 0.01 | 97 | 1011.6 |
| 20260510134503 | 54 | 192 | 1.0 | 3.0 | 0.00 | 0.58 | 0.01 | 97 | 1011.3 |
| 20260510134024 | 54 | 190 | 1.0 | 2.0 | 0.00 | 0.58 | 0.01 | 97 | 1011.4 |
| 20260510133524 | 54 | 188 | 1.0 | 2.0 | 0.00 | 0.58 | 0.01 | 97 | 1011.5 |
| 20260510133024 | 54 | 181 | 1.0 | 2.0 | 0.00 | 0.58 | 0.01 | 97 | 1011.4 |
| 20260510132524 | 54 | 177 | 0.0 | 2.0 | 0.00 | 0.58 | 0.01 | 97 | 1011.5 |
| 20260510132003 | 53 | 202 | 1.0 | 6.0 | 0.00 | 0.58 | 0.01 | 97 | 1011.3 |
| 20260510131503 | 53 | 202 | 1.0 | 6.0 | 0.01 | 0.58 | 0.01 | 97 | 1011.3 |
| 20260510131003 | 53 | 195 | 1.0 | 3.0 | 0.01 | 0.58 | 0.01 | 97 | 1011.6 |
| 20260510130503 | 53 | 188 | 0.0 | 3.0 | 0.01 | 0.58 | 0.01 | 97 | 1011.5 |
| 20260510130003 | 52 | 189 | 0.0 | 2.0 | 0.01 | 0.58 | 0.01 | 97 | 1011.4 |
| 20260510125503 | 52 | 187 | 0.0 | 2.0 | 0.01 | 0.58 | 0.01 | 97 | 1011.5 |
| 20260510125003 | 52 | 190 | 0.0 | 2.0 | 0.01 | 0.58 | 0.01 | 98 | 1011.4 |
| 20260510124503 | 51 | 193 | 1.0 | 3.0 | 0.01 | 0.58 | 0.01 | 97 | 1011.3 |
| 20260510124024 | 51 | 193 | 0.0 | 3.0 | 0.01 | 0.58 | 0.01 | 97 | 1011.3 |
| 20260510123503 | 51 | 192 | 0.0 | 1.0 | 0.01 | 0.58 | 0.01 | 97 | 1011.6 |
| 20260510123003 | 51 | 189 | 0.0 | 1.0 | 0.01 | 0.58 | 0.01 | 97 | 1011.4 |
| 20260510122503 | 51 | 186 | 0.0 | 2.0 | 0.01 | 0.58 | 0.01 | 98 | 1011.4 |
| 20260510122003 | 51 | 185 | 0.0 | 2.0 | 0.01 | 0.58 | 0.01 | 97 | 1011.4 |
| 20260510121524 | 51 | 186 | 0.0 | 2.0 | 0.00 | 0.57 | 0.00 | 98 | 1011.3 |
| 20260510121003 | 50 | 187 | 0.0 | 2.0 | 0.00 | 0.57 | 0.00 | 97 | 1011.7 |
| 20260510120503 | 50 | 180 | 0.0 | 1.0 | 0.00 | 0.57 | 0.00 | 97 | 1011.6 |
| 20260510120003 | 50 | 196 | 0.0 | 1.0 | 0.00 | 0.57 | 0.00 | 97 | 1011.6 |
| 20260510115503 | 50 | 193 | 0.0 | 1.0 | 0.00 | 0.57 | 0.00 | 97 | 1011.6 |
| 20260510115003 | 49 | 182 | 0.0 | 1.0 | 0.00 | 0.57 | 0.00 | 97 | 1011.7 |
| 20260510114503 | 49 | 180 | 0.0 | 1.0 | 0.00 | 0.57 | 0.00 | 97 | 1011.3 |
| 20260510114003 | 49 | 191 | 0.0 | 1.0 | 0.00 | 0.57 | 0.00 | 97 | 1011.6 |
| 20260510113503 | 49 | 195 | 0.0 | 1.0 | 0.00 | 0.57 | 0.00 | 97 | 1011.6 |
| 20260510113003 | 49 | 195 | 0.0 | 1.0 | 0.00 | 0.57 | 0.00 | 97 | 1011.6 |
| 20260510112503 | 49 | 203 | 0.0 | 1.0 | 0.00 | 0.57 | 0.00 | 97 | 1011.2 |
| 20260510112003 | 49 | 203 | 0.0 | 2.0 | 0.00 | 0.57 | 0.00 | 97 | 1011.3 |
| 20260510111503 | 49 | 205 | 1.0 | 4.0 | 0.00 | 0.57 | 0.00 | 97 | 1011.1 |
| 20260510111003 | 48 | 201 | 1.0 | 4.0 | 0.00 | 0.57 | 0.00 | 97 | 1010.7 |
| 20260510110503 | 48 | 193 | 0.0 | 3.0 | 0.00 | 0.57 | 0.00 | 97 | 1011.1 |
| 20260510110003 | 48 | 192 | 0.0 | 4.0 | 0.00 | 0.57 | 0.00 | 97 | 1010.9 |
| 20260510105503 | 48 | 190 | 0.0 | 4.0 | 0.00 | 0.57 | 0.00 | 97 | 1010.9 |
| 20260510105002 | 48 | 0 | 0.0 | 0.0 | 0.00 | 0.57 | 0.00 | 97 | 1011.0 |
| 20260510104524 | 47 | 0 | 0.0 | 0.0 | 0.00 | 0.57 | 0.00 | 97 | 1010.7 |
| 20260510104003 | 47 | 0 | 0.0 | 0.0 | 0.00 | 0.57 | 0.00 | 97 | 1010.5 |
| 20260510103524 | 47 | 0 | 0.0 | 0.0 | 0.00 | 0.57 | 0.00 | 97 | 1010.6 |
| 20260510103003 | 47 | 0 | 0.0 | 0.0 | 0.00 | 0.57 | 0.00 | 97 | 1010.9 |
| 20260510102524 | 46 | 0 | 0.0 | 0.0 | 0.00 | 0.57 | 0.00 | 97 | 1010.5 |
| 20260510102003 | 46 | 0 | 0.0 | 0.0 | 0.00 | 0.57 | 0.00 | 97 | 1010.4 |
| 20260510101503 | 46 | 0 | 0.0 | 0.0 | 0.00 | 0.57 | 0.00 | 97 | 1010.6 |
| 20260510101003 | 46 | 0 | 0.0 | 0.0 | 0.00 | 0.57 | 0.00 | 97 | 1010.1 |
| 20260510100523 | 46 | 0 | 0.0 | 0.0 | 0.00 | 0.57 | 0.00 | 97 | 1010.2 |
| 20260510100024 | 46 | 0 | 0.0 | 0.0 | 0.00 | 0.57 | 0.00 | 97 | 1010.2 |
| 20260510095503 | 46 | 0 | 0.0 | 0.0 | 0.00 | 0.57 | 0.00 | 97 | 1010.3 |
| 20260510095003 | 46 | 0 | 0.0 | 0.0 | 0.00 | 0.57 | 0.00 | 97 | 1010.2 |
| 20260510094503 | 46 | 0 | 0.0 | 0.0 | 0.00 | 0.57 | 0.00 | 97 | 1010.3 |
| 20260510094024 | 46 | 0 | 0.0 | 0.0 | 0.00 | 0.57 | 0.00 | 97 | 1010.4 |
| 20260510093503 | 46 | 0 | 0.0 | 0.0 | 0.00 | 0.57 | 0.00 | 97 | 1009.8 |
| 20260510093003 | 46 | 0 | 0.0 | 0.0 | 0.00 | 0.57 | 0.00 | 97 | 1010.0 |
| 20260510092503 | 46 | 0 | 0.0 | 0.0 | 0.00 | 0.57 | 0.00 | 97 | 1010.1 |
| 20260510092003 | 46 | 0 | 0.0 | 0.0 | 0.00 | 0.57 | 0.00 | 97 | 1010.4 |
| 20260510091524 | 46 | 0 | 0.0 | 0.0 | 0.00 | 0.57 | 0.00 | 97 | 1010.5 |
| 20260510091003 | 46 | 0 | 0.0 | 0.0 | 0.00 | 0.57 | 0.00 | 97 | 1010.4 |
| 20260510090503 | 45 | 0 | 0.0 | 0.0 | 0.00 | 0.57 | 0.00 | 97 | 1010.5 |
| 20260510090003 | 46 | 0 | 0.0 | 0.0 | 0.00 | 0.57 | 0.00 | 97 | 1010.2 |
| 20260510085503 | 46 | 0 | 0.0 | 0.0 | 0.00 | 0.57 | 0.00 | 96 | 1010.7 |
| 20260510085003 | 46 | 0 | 0.0 | 0.0 | 0.00 | 0.57 | 0.00 | 97 | 1010.4 |
| 20260510084503 | 45 | 0 | 0.0 | 0.0 | 0.00 | 0.57 | 0.00 | 96 | 1010.3 |
| 20260510084003 | 45 | 0 | 0.0 | 0.0 | 0.00 | 0.57 | 0.00 | 96 | 1010.6 |
| 20260510083503 | 45 | 0 | 0.0 | 0.0 | 0.00 | 0.57 | 0.00 | 96 | 1010.1 |
| 20260510083003 | 45 | 0 | 0.0 | 0.0 | 0.00 | 0.57 | 0.00 | 96 | 1010.2 |
| 20260510082503 | 45 | 0 | 0.0 | 0.0 | 0.00 | 0.57 | 0.00 | 96 | 1010.5 |
| 20260510082003 | 45 | 0 | 0.0 | 0.0 | 0.00 | 0.57 | 0.00 | 96 | 1010.4 |
| 20260510081503 | 45 | 0 | 0.0 | 0.0 | 0.00 | 0.57 | 0.00 | 96 | 1010.5 |
| 20260510081003 | 45 | 0 | 0.0 | 0.0 | 0.00 | 0.57 | 0.00 | 96 | 1010.4 |
| 20260510080503 | 45 | 0 | 0.0 | 0.0 | 0.00 | 0.57 | 0.00 | 96 | 1010.2 |
| 20260510080024 | 45 | 0 | 0.0 | 0.0 | 0.00 | 0.57 | 0.00 | 96 | 1010.2 |
| 20260510075524 | 45 | 0 | 0.0 | 0.0 | 0.00 | 0.57 | 0.00 | 96 | 1010.5 |
| 20260510075003 | 45 | 0 | 0.0 | 0.0 | 0.00 | 0.57 | 0.00 | 96 | 1010.5 |
| 20260510074503 | 45 | 0 | 0.0 | 0.0 | 0.00 | 0.57 | 0.00 | 96 | 1010.4 |
| 20260510074024 | 45 | 0 | 0.0 | 0.0 | 0.00 | 0.57 | 0.00 | 96 | 1010.4 |
| 20260510073503 | 45 | 0 | 0.0 | 0.0 | 0.00 | 0.57 | 0.00 | 96 | 1010.4 |
| 20260510073003 | 45 | 0 | 0.0 | 0.0 | 0.00 | 0.57 | 0.00 | 96 | 1010.1 |
| 20260510072503 | 45 | 0 | 0.0 | 0.0 | 0.00 | 0.57 | 0.00 | 96 | 1010.1 |
| 20260510072024 | 45 | 0 | 0.0 | 0.0 | 0.00 | 0.57 | 0.00 | 96 | 1010.2 |
| 20260510071503 | 45 | 0 | 0.0 | 0.0 | 0.00 | 0.57 | 0.00 | 96 | 1010.2 |
| 20260510071003 | 45 | 0 | 0.0 | 0.0 | 0.00 | 0.57 | 0.00 | 96 | 1010.3 |
| 20260510070524 | 45 | 0 | 0.0 | 0.0 | 0.00 | 0.57 | 0.00 | 96 | 1010.5 |
| 20260510070003 | 45 | 0 | 0.0 | 0.0 | 0.00 | 0.57 | 0.00 | 96 | 1010.4 |
| 20260510065503 | 45 | 0 | 0.0 | 0.0 | 0.00 | 0.57 | 0.00 | 96 | 1010.8 |
| 20260510065024 | 45 | 0 | 0.0 | 0.0 | 0.00 | 0.57 | 0.00 | 96 | 1010.6 |
| 20260510064503 | 45 | 0 | 0.0 | 0.0 | 0.00 | 0.57 | 0.00 | 96 | 1010.4 |
| 20260510064003 | 45 | 0 | 0.0 | 0.0 | 0.00 | 0.57 | 0.00 | 96 | 1010.2 |
| 20260510063503 | 45 | 0 | 0.0 | 0.0 | 0.00 | 0.57 | 0.00 | 96 | 1010.6 |
| 20260510063003 | 45 | 0 | 0.0 | 0.0 | 0.00 | 0.57 | 0.00 | 96 | 1010.3 |
| 20260510062503 | 45 | 0 | 0.0 | 0.0 | 0.00 | 0.57 | 0.00 | 96 | 1010.2 |
| 20260510062003 | 45 | 0 | 0.0 | 0.0 | 0.00 | 0.57 | 0.00 | 96 | 1010.6 |
| 20260510061503 | 45 | 0 | 0.0 | 0.0 | 0.00 | 0.57 | 0.00 | 96 | 1010.4 |
| 20260510061003 | 45 | 0 | 0.0 | 0.0 | 0.00 | 0.57 | 0.00 | 96 | 1010.4 |
| 20260510060524 | 45 | 0 | 0.0 | 0.0 | 0.00 | 0.57 | 0.00 | 96 | 1010.3 |
| 20260510060003 | 45 | 0 | 0.0 | 0.0 | 0.00 | 0.57 | 0.00 | 96 | 1010.4 |
| 20260510055503 | 45 | 0 | 0.0 | 0.0 | 0.00 | 0.57 | 0.00 | 96 | 1010.5 |
| 20260510055003 | 45 | 0 | 0.0 | 0.0 | 0.00 | 0.57 | 0.00 | 96 | 1010.5 |
| 20260510054503 | 45 | 0 | 0.0 | 0.0 | 0.00 | 0.57 | 0.00 | 96 | 1010.5 |
| 20260510054003 | 45 | 0 | 0.0 | 0.0 | 0.00 | 0.57 | 0.00 | 96 | 1010.7 |
| 20260510053503 | 45 | 0 | 0.0 | 0.0 | 0.00 | 0.57 | 0.00 | 96 | 1010.8 |
| 20260510053003 | 45 | 0 | 0.0 | 0.0 | 0.00 | 0.57 | 0.00 | 96 | 1010.6 |
| 20260510052503 | 45 | 0 | 0.0 | 0.0 | 0.00 | 0.57 | 0.00 | 96 | 1010.6 |
| 20260510052003 | 45 | 0 | 0.0 | 0.0 | 0.00 | 0.57 | 0.00 | 96 | 1011.0 |
| 20260510051503 | 45 | 0 | 0.0 | 0.0 | 0.00 | 0.57 | 0.00 | 96 | 1011.0 |
| 20260510051003 | 45 | 0 | 0.0 | 0.0 | 0.00 | 0.57 | 0.00 | 96 | 1011.1 |
| 20260510050503 | 45 | 0 | 0.0 | 0.0 | 0.00 | 0.57 | 0.00 | 96 | 1011.0 |
| 20260510050003 | 45 | 0 | 0.0 | 0.0 | 0.00 | 0.57 | 0.00 | 96 | 1011.2 |
| 20260510045503 | 45 | 0 | 0.0 | 0.0 | 0.00 | 0.57 | 0.00 | 96 | 1011.1 |
| 20260510045024 | 45 | 0 | 0.0 | 0.0 | 0.00 | 0.57 | 0.00 | 96 | 1011.0 |
| 20260510044524 | 45 | 0 | 0.0 | 0.0 | 0.00 | 0.57 | 0.00 | 96 | 1010.7 |
| 20260510044003 | 45 | 0 | 0.0 | 0.0 | 0.00 | 0.57 | 0.00 | 96 | 1010.8 |
| 20260510043524 | 45 | 0 | 0.0 | 0.0 | 0.00 | 0.57 | 0.00 | 96 | 1011.0 |
| 20260510043003 | 45 | 0 | 0.0 | 0.0 | 0.00 | 0.57 | 0.00 | 96 | 1010.9 |
| 20260510042503 | 45 | 0 | 0.0 | 0.0 | 0.00 | 0.57 | 0.00 | 96 | 1011.3 |
| 20260510042003 | 45 | 0 | 0.0 | 0.0 | 0.00 | 0.57 | 0.00 | 96 | 1011.1 |
| 20260510041524 | 45 | 0 | 0.0 | 0.0 | 0.00 | 0.57 | 0.00 | 96 | 1011.0 |
| 20260510041003 | 45 | 0 | 0.0 | 0.0 | 0.00 | 0.57 | 0.00 | 96 | 1011.0 |
| 20260510040503 | 45 | 0 | 0.0 | 0.0 | 0.00 | 0.57 | 0.00 | 96 | 1010.9 |
| 20260510040003 | 45 | 0 | 0.0 | 0.0 | 0.00 | 0.57 | 0.00 | 95 | 1010.8 |
| 20260510035503 | 45 | 0 | 0.0 | 0.0 | 0.00 | 0.57 | 0.57 | 95 | 1010.8 |
| 20260510035003 | 45 | 0 | 0.0 | 0.0 | 0.00 | 0.57 | 0.57 | 95 | 1010.8 |
| 20260510034524 | 45 | 0 | 0.0 | 0.0 | 0.00 | 0.57 | 0.57 | 95 | 1011.0 |
| 20260510034024 | 45 | 0 | 0.0 | 0.0 | 0.00 | 0.57 | 0.57 | 95 | 1010.9 |
| 20260510033503 | 45 | 190 | 0.0 | 1.0 | 0.00 | 0.57 | 0.57 | 95 | 1011.1 |
| 20260510033003 | 45 | 190 | 0.0 | 1.0 | 0.00 | 0.57 | 0.57 | 95 | 1011.2 |
| 20260510032503 | 45 | 0 | 0.0 | 0.0 | 0.00 | 0.57 | 0.57 | 95 | 1011.3 |
| 20260510032024 | 45 | 0 | 0.0 | 0.0 | 0.00 | 0.57 | 0.57 | 95 | 1011.3 |
| 20260510031503 | 45 | 0 | 0.0 | 0.0 | 0.00 | 0.57 | 0.57 | 95 | 1011.3 |
| 20260510031003 | 45 | 194 | 0.0 | 1.0 | 0.00 | 0.57 | 0.57 | 95 | 1011.6 |
| 20260510030503 | 45 | 196 | 0.0 | 2.0 | 0.00 | 0.57 | 0.57 | 95 | 1011.6 |
| 20260510030003 | 45 | 198 | 0.0 | 2.0 | 0.00 | 0.57 | 0.57 | 95 | 1011.4 |
| 20260510025503 | 45 | 201 | 0.0 | 1.0 | 0.00 | 0.57 | 0.57 | 95 | 1011.6 |
| 20260510025003 | 45 | 199 | 0.0 | 1.0 | 0.00 | 0.57 | 0.57 | 95 | 1011.6 |
| 20260510024503 | 45 | 196 | 0.0 | 1.0 | 0.00 | 0.57 | 0.57 | 95 | 1012.0 |
| 20260510024003 | 45 | 195 | 0.0 | 1.0 | 0.00 | 0.57 | 0.57 | 95 | 1011.7 |
| 20260510023503 | 45 | 190 | 0.0 | 1.0 | 0.00 | 0.57 | 0.57 | 95 | 1012.0 |
| 20260510023003 | 45 | 189 | 0.0 | 1.0 | 0.00 | 0.57 | 0.57 | 95 | 1011.5 |
| 20260510022503 | 45 | 187 | 0.0 | 1.0 | 0.00 | 0.57 | 0.57 | 95 | 1011.8 |
| 20260510022024 | 45 | 193 | 0.0 | 1.0 | 0.00 | 0.57 | 0.57 | 95 | 1011.8 |
| 20260510021503 | 46 | 193 | 0.0 | 1.0 | 0.00 | 0.57 | 0.57 | 95 | 1011.8 |
| 20260510021003 | 46 | 197 | 0.0 | 2.0 | 0.00 | 0.57 | 0.57 | 95 | 1011.6 |
| 20260510020503 | 45 | 197 | 0.0 | 2.0 | 0.00 | 0.57 | 0.57 | 95 | 1011.8 |
| 20260510020024 | 45 | 0 | 0.0 | 0.0 | 0.00 | 0.57 | 0.57 | 95 | 1011.9 |
| 20260510015524 | 46 | 0 | 0.0 | 0.0 | 0.00 | 0.57 | 0.57 | 95 | 1011.8 |
| 20260510015003 | 45 | 229 | 0.0 | 2.0 | 0.00 | 0.57 | 0.57 | 95 | 1011.9 |
| 20260510014503 | 46 | 214 | 1.0 | 2.0 | 0.00 | 0.57 | 0.57 | 95 | 1012.0 |
| 20260510014003 | 46 | 209 | 0.0 | 2.0 | 0.00 | 0.57 | 0.57 | 95 | 1011.9 |
| 20260510013503 | 46 | 200 | 0.0 | 2.0 | 0.00 | 0.57 | 0.57 | 95 | 1012.2 |
| 20260510013024 | 45 | 200 | 0.0 | 2.0 | 0.00 | 0.57 | 0.57 | 95 | 1011.8 |
| 20260510012524 | 45 | 0 | 0.0 | 0.0 | 0.00 | 0.57 | 0.57 | 95 | 1012.1 |
| 20260510012003 | 45 | 0 | 0.0 | 0.0 | 0.00 | 0.57 | 0.57 | 95 | 1011.7 |
| 20260510011503 | 46 | 178 | 0.0 | 1.0 | 0.00 | 0.57 | 0.57 | 95 | 1012.0 |
| 20260510011024 | 45 | 178 | 0.0 | 1.0 | 0.00 | 0.57 | 0.57 | 95 | 1011.6 |
| 20260510010503 | 46 | 180 | 0.0 | 1.0 | 0.00 | 0.57 | 0.57 | 95 | 1011.8 |
| 20260510010024 | 46 | 180 | 0.0 | 1.0 | 0.00 | 0.57 | 0.57 | 95 | 1011.7 |
| 20260510005503 | 46 | 155 | 0.0 | 2.0 | 0.00 | 0.57 | 0.57 | 95 | 1011.9 |
| 20260510005003 | 46 | 156 | 0.0 | 2.0 | 0.00 | 0.57 | 0.57 | 95 | 1011.7 |
| 20260510004503 | 46 | 161 | 0.0 | 1.0 | 0.00 | 0.57 | 0.57 | 95 | 1011.7 |
| 20260510004003 | 46 | 177 | 0.0 | 1.0 | 0.00 | 0.57 | 0.57 | 95 | 1011.7 |
| 20260510003503 | 46 | 190 | 0.0 | 1.0 | 0.00 | 0.57 | 0.57 | 95 | 1011.7 |
| 20260510003004 | 46 | 194 | 0.0 | 1.0 | 0.00 | 0.57 | 0.57 | 95 | 1011.6 |
| 20260510002503 | 45 | 0 | 0.0 | 0.0 | 0.00 | 0.57 | 0.57 | 95 | 1011.6 |
| 20260510002003 | 46 | 0 | 0.0 | 0.0 | 0.00 | 0.57 | 0.57 | 95 | 1011.5 |
| 20260510001524 | 46 | 195 | 0.0 | 1.0 | 0.00 | 0.57 | 0.57 | 95 | 1011.6 |
| 20260510001024 | 46 | 195 | 0.0 | 1.0 | 0.00 | 0.57 | 0.57 | 95 | 1011.6 |
| 20260510000503 | 46 | 193 | 0.0 | 1.0 | 0.00 | 0.57 | 0.57 | 95 | 1011.4 |
| 20260510000003 | 46 | 188 | 0.0 | 1.0 | 0.00 | 0.57 | 0.57 | 95 | 1011.4 |
| 20260509235524 | 46 | 188 | 0.0 | 1.0 | 0.00 | 0.57 | 0.57 | 95 | 1011.4 |
| 20260509235003 | 46 | 188 | 0.0 | 1.0 | 0.00 | 0.57 | 0.57 | 95 | 1011.5 |
| 20260509234503 | 46 | 0 | 0.0 | 0.0 | 0.00 | 0.57 | 0.57 | 95 | 1011.3 |
| 20260509234024 | 46 | 0 | 0.0 | 0.0 | 0.00 | 0.57 | 0.57 | 94 | 1011.5 |
| 20260509233503 | 45 | 0 | 0.0 | 0.0 | 0.00 | 0.57 | 0.57 | 94 | 1011.1 |
| 20260509233024 | 46 | 0 | 0.0 | 0.0 | 0.00 | 0.57 | 0.57 | 95 | 1011.4 |
| 20260509232503 | 46 | 0 | 0.0 | 0.0 | 0.00 | 0.57 | 0.57 | 95 | 1011.2 |
| 20260509232003 | 45 | 0 | 0.0 | 0.0 | 0.00 | 0.57 | 0.57 | 94 | 1011.3 |
| 20260509231503 | 46 | 0 | 0.0 | 0.0 | 0.00 | 0.57 | 0.57 | 94 | 1011.4 |
| 20260509231003 | 46 | 193 | 0.0 | 1.0 | 0.00 | 0.57 | 0.57 | 94 | 1011.3 |
| 20260509230503 | 46 | 193 | 0.0 | 1.0 | 0.00 | 0.57 | 0.57 | 94 | 1011.2 |
| 20260509230004 | 46 | 0 | 0.0 | 0.0 | 0.00 | 0.57 | 0.57 | 94 | 1011.1 |
| 20260509225503 | 46 | 0 | 0.0 | 0.0 | 0.01 | 0.57 | 0.57 | 94 | 1011.1 |
| 20260509225003 | 46 | 187 | 0.0 | 1.0 | 0.01 | 0.57 | 0.57 | 94 | 1011.1 |
| 20260509224503 | 46 | 187 | 0.0 | 1.0 | 0.02 | 0.57 | 0.57 | 94 | 1011.0 |
| 20260509224003 | 46 | 180 | 0.0 | 2.0 | 0.03 | 0.57 | 0.57 | 94 | 1011.1 |
| 20260509223503 | 46 | 202 | 0.0 | 3.0 | 0.03 | 0.57 | 0.57 | 94 | 1011.2 |
| 20260509223003 | 46 | 199 | 1.0 | 3.0 | 0.04 | 0.57 | 0.57 | 94 | 1011.1 |
| 20260509222503 | 46 | 175 | 1.0 | 4.0 | 0.04 | 0.57 | 0.57 | 94 | 1011.1 |
| 20260509222003 | 46 | 215 | 1.0 | 4.0 | 0.04 | 0.57 | 0.57 | 94 | 1011.3 |
| 20260509221503 | 46 | 218 | 1.0 | 3.0 | 0.04 | 0.57 | 0.57 | 94 | 1011.3 |
| 20260509221003 | 46 | 224 | 1.0 | 4.0 | 0.06 | 0.57 | 0.57 | 94 | 1011.3 |